Location: Black Swamp Observatory
(41.3920°N, 84.1250°W)
Time: 02:49:13
(UTC-05:00)

Amateur Radio Satellites - All Passes

Search period start: 21 November 2017 02:19
Search period end: 22 November 2017 02:19
Location: Black Swamp Observatory, 41.3920°N, 84.1250°W

Satellite Date Start Highest point End Downlink Frequencies (MHz)
Time Altitude Azimuth
UKube-1 21 Nov 02:28:46 02:32:41 34° 262° (W) 02:36:38 .
ISS 21 Nov 03:01:32 03:04:32 33° 26° (NNE) 03:07:32 437.550
BEESAT 3 21 Nov 03:07:32 03:11:27 60° 119° (ESE) 03:15:25 437.485
BEESAT 21 Nov 03:15:51 03:20:38 84° 255° (WSW) 03:25:26 436.000
ITUPSAT 1 21 Nov 03:25:24 03:30:10 69° 257° (WSW) 03:34:56 437.325
M-CUBED/EXP-1 PRIME 21 Nov 03:30:25 03:34:59 76° 106° (ESE) 03:39:37 437.505
Oscar 19 21 Nov 03:30:38 03:34:33 22° 296° (WNW) 03:38:28 437.125/150
RS-15 21 Nov 03:34:34 03:46:24 61° 49° (NE) 03:57:32 29.354- 29.394
MOZHAYETS 4 21 Nov 03:41:10 03:45:21 35° 263° (W) 03:49:33
ITAMSAT 1 21 Nov 03:42:41 03:47:16 31° 96° (E) 03:51:49 435.822/435.867
CUBESAT XI-V 21 Nov 03:51:26 03:55:58 67° 74° (ENE) 04:00:34 437.345
Gurwin Techsat 1B 21 Nov 03:53:54 03:57:44 21° 297° (WNW) 04:01:34 435.225
nSIGHT-1 21 Nov 03:54:36 03:57:47 71° 219° (SW) 04:00:57 .
KKS-1 21 Nov 03:58:59 04:02:13 20° 65° (ENE) 04:05:28 437.445
AO-7 21 Nov 04:07:11 04:15:31 67° 105° (ESE) 04:23:49 .
BEESAT 2 21 Nov 04:18:15 04:22:15 82° 300° (WNW) 04:26:20 435.950
STARS 21 Nov 04:24:42 04:27:12 15° 63° (ENE) 04:29:43 437.465
DOVE 4 21 Nov 04:27:54 04:30:56 16° 89° (E) 04:33:53 437.250
YUBILEINY 21 Nov 04:28:59 04:34:26 19° 77° (ENE) 04:39:55 435.215
ISS 21 Nov 04:38:03 04:41:00 32° 223° (SW) 04:43:57 437.550
BEESAT 3 21 Nov 04:46:51 04:49:21 16° 317° (NW) 04:51:52 437.485
AO-85 21 Nov 05:05:56 05:09:47 70° 304° (NW) 05:13:50 145.980
M-CUBED/EXP-1 PRIME 21 Nov 05:06:33 05:08:47 14° 303° (WNW) 05:11:04 437.505
ITAMSAT 1 21 Nov 05:22:04 05:26:41 33° 293° (WNW) 05:31:17 435.822/435.867
CUBESAT XI-V 21 Nov 05:32:03 05:33:47 12° 271° (W) 05:35:32 437.345
KKS-1 21 Nov 05:34:15 05:38:28 41° 261° (W) 05:42:44 437.445
RS-15 21 Nov 05:47:46 05:58:18 42° 253° (WSW) 06:08:23 29.354- 29.394
KAITUO 1B 21 Nov 05:55:15 05:57:14 14° 92° (E) 05:59:12 145.475/437.950
STARS 21 Nov 05:58:43 06:03:04 55° 259° (W) 06:07:26 437.465
BEESAT 2 21 Nov 05:59:15 06:00:39 11° 322° (NW) 06:02:04 435.950
AO-7 21 Nov 06:00:46 06:07:41 30° 304° (NW) 06:14:35 .
DOVE 4 21 Nov 06:03:55 06:09:04 62° 286° (WNW) 06:13:56 437.250
XW-2D 21 Nov 06:08:39 06:12:00 29° 96° (E) 06:15:21 145.860 - 145.880
HO-68 21 Nov 06:16:14 06:20:18 16° 89° (E) 06:24:21 435.675
STRAND 1 21 Nov 06:19:58 06:24:17 28° 66° (ENE) 06:28:38 437.568
YUBILEINY 21 Nov 06:21:12 06:29:57 88° 275° (W) 06:38:50 435.215
XW-2B 21 Nov 06:23:16 06:26:54 41° 99° (E) 06:30:31 145.730 - 145.750
NUDT-PHONESAT 21 Nov 06:38:48 06:42:22 44° 99° (E) 06:45:56 437.300
SO-50 21 Nov 06:39:35 06:44:06 49° 53° (NE) 06:48:39 436.795
XW-2C 21 Nov 06:48:43 06:52:32 88° 283° (WNW) 06:56:22 145.795 - 145.815
LilacSat-2 21 Nov 06:50:33 06:54:23 78° 284° (WNW) 06:58:14 437.200
CUTE 1.7 + AOD 2 21 Nov 06:50:34 06:53:50 21° 94° (E) 06:57:06 437.475
CUTE-I 21 Nov 06:52:29 06:57:51 66° 102° (ESE) 07:03:09 437.470
XW-2F 21 Nov 06:59:34 07:03:21 69° 284° (WNW) 07:07:07 145.980 - 146.000
SEEDS 21 Nov 07:20:57 07:24:36 27° 95° (E) 07:28:15 437.485
KAITUO 1B 21 Nov 07:27:50 07:31:22 39° 287° (WNW) 07:34:54 145.475/437.950
AAUSAT CUBESAT 2 21 Nov 07:29:04 07:31:24 14° 91° (E) 07:33:43 437.432
FO-29 21 Nov 07:33:23 07:39:30 39° 65° (ENE) 07:46:15 435.910
XW-2D 21 Nov 07:43:13 07:45:59 19° 292° (WNW) 07:48:44 145.860 - 145.880
CUBEBUG 2 21 Nov 07:45:11 07:49:13 47° 99° (E) 07:53:13 437.445
AO-73 21 Nov 07:49:05 07:51:03 13° 91° (E) 07:53:00 145.935
STRAND 1 21 Nov 07:58:35 08:03:18 36° 262° (W) 08:08:03 437.568
XW-2B 21 Nov 07:58:39 08:00:42 14° 294° (WNW) 08:02:45 145.730 - 145.750
HO-68 21 Nov 08:01:40 08:08:55 90° 264° (W) 08:16:05 435.675
XW-2A 21 Nov 08:02:15 08:05:23 35° 98° (E) 08:08:31 145.665 - 145.685
Oscar 11 21 Nov 08:05:23 08:07:42 14° 91° (E) 08:10:00 .
NUDT-PHONESAT 21 Nov 08:14:08 08:15:49 13° 295° (WNW) 08:17:30 437.300
SO-50 21 Nov 08:20:50 08:24:13 20° 249° (WSW) 08:27:38 436.795
YUBILEINY 21 Nov 08:22:20 08:28:07 19° 299° (WNW) 08:33:57 435.215
CUTE 1.7 + AOD 2 21 Nov 08:25:52 08:29:42 33° 290° (WNW) 08:33:32 437.475
ZACube-1 21 Nov 08:32:28 08:36:29 46° 99° (E) 08:40:30 437.345
CUTE-I 21 Nov 08:33:52 08:37:18 18° 299° (WNW) 08:40:45 437.470
UWE-3 21 Nov 08:42:05 08:46:12 67° 285° (WNW) 08:50:18 435.000/436.395/437.385
SEEDS 21 Nov 08:56:41 09:00:10 25° 291° (WNW) 09:03:39 437.485
PCSat 21 Nov 09:01:01 09:05:52 32° 50° (NE) 09:10:41 145.827
AAUSAT CUBESAT 2 21 Nov 09:03:03 09:07:05 46° 287° (WNW) 09:11:04 437.432
FO-29 21 Nov 09:18:18 09:24:26 41° 265° (W) 09:31:17 435.910
UNISAT 6 21 Nov 09:22:04 09:26:35 61° 74° (ENE) 09:31:01 437.425
CUBEBUG 2 21 Nov 09:23:08 09:25:26 15° 296° (WNW) 09:27:43 437.445
AO-73 21 Nov 09:23:33 09:27:33 50° 287° (WNW) 09:31:34 145.935
TIGRISAT 21 Nov 09:26:25 09:30:56 62° 74° (ENE) 09:35:22 435.000
FALCONSAT 3 21 Nov 09:30:49 09:32:11 12° 155° (SSE) 09:33:33 435.103
DELFI C3 21 Nov 09:33:55 09:37:19 26° 96° (E) 09:40:41 145.870
XW-2A 21 Nov 09:36:18 09:37:45 12° 294° (WNW) 09:39:12 145.665 - 145.685
Oscar 11 21 Nov 09:39:54 09:44:06 51° 287° (WNW) 09:48:18 .
HO-68 21 Nov 09:51:02 09:55:40 19° 306° (NW) 10:00:19 435.675
ZACube-1 21 Nov 10:10:01 10:12:23 15° 295° (WNW) 10:14:44 437.345
PRISM 21 Nov 10:20:56 10:25:03 85° 257° (WSW) 10:29:13 437.425
EO-88 21 Nov 10:36:54 10:40:34 75° 101° (ESE) 10:44:12 145.990 - 145.960
Max Valier Satellite 21 Nov 10:38:45 10:42:23 69° 284° (WNW) 10:46:02 145.860
DUCHIFAT 1 21 Nov 10:40:18 10:42:14 13° 63° (ENE) 10:44:10 145.980
AIST 2D 21 Nov 10:42:03 10:45:20 42° 74° (ENE) 10:48:38 435.315
PCSat 21 Nov 10:44:18 10:49:19 39° 249° (WSW) 10:54:18 145.827
EO-79 21 Nov 10:46:27 10:49:30 20° 66° (ENE) 10:52:33 145.935-145.965
NANOSAT C BR1 21 Nov 10:49:44 10:52:42 19° 66° (ENE) 10:55:40 145.865
ESTCUBE 1 21 Nov 10:54:22 10:56:07 12° 90° (E) 10:57:52 437.505/2401.250
POLYITAN 1 21 Nov 11:01:09 11:04:45 28° 69° (ENE) 11:08:21 437.675
UNISAT 6 21 Nov 11:01:35 11:03:38 13° 269° (W) 11:05:41 437.425
LO-87 21 Nov 11:02:03 11:04:23 16° 93° (E) 11:06:41 145.935 - 145.965
TIGRISAT 21 Nov 11:05:59 11:07:58 13° 269° (W) 11:09:56 435.000
FALCONSAT 3 21 Nov 11:07:29 11:10:38 27° 169° (S) 11:13:47 435.103
DELFI C3 21 Nov 11:08:44 11:11:56 23° 291° (WNW) 11:15:06 145.870
QB50P2 21 Nov 11:23:49 11:27:58 55° 74° (ENE) 11:32:08 145.880/145.840
BEESAT 3 21 Nov 11:24:07 11:27:46 35° 51° (NE) 11:31:21 437.485
BUGSAT 1 21 Nov 11:32:43 11:34:22 12° 63° (ENE) 11:36:00 437.445
AO-85 21 Nov 11:56:50 11:59:43 16° 41° (NE) 12:02:41 145.980
Gurwin Techsat 1B 21 Nov 11:58:14 12:00:15 12° 58° (ENE) 12:02:17 435.225
SPROUT 21 Nov 12:09:38 12:12:34 18° 93° (E) 12:15:30 437.525
DUCHIFAT 1 21 Nov 12:13:14 12:17:23 58° 259° (W) 12:21:34 145.980
AIST 2D 21 Nov 12:18:14 12:18:44 10° 269° (W) 12:19:14 435.315
EO-79 21 Nov 12:21:04 12:25:00 36° 262° (W) 12:28:56 145.935-145.965
NANOSAT C BR1 21 Nov 12:24:10 12:28:07 38° 262° (W) 12:32:05 145.865
ESTCUBE 1 21 Nov 12:28:49 12:33:20 65° 285° (WNW) 12:37:48 437.505/2401.250
LO-87 21 Nov 12:34:45 12:37:49 28° 289° (WNW) 12:40:50 145.935 - 145.965
BEESAT 2 21 Nov 12:35:41 12:39:40 57° 55° (NE) 12:43:36 435.950
POLYITAN 1 21 Nov 12:36:57 12:40:28 25° 265° (W) 12:43:59 437.675
O/OREOS (USA 219) 21 Nov 12:42:27 12:44:58 15° 99° (E) 12:47:30 437.305
FALCONSAT 3 21 Nov 12:46:00 12:49:18 31° 185° (S) 12:52:36 435.103
VELOX 1 21 Nov 12:48:49 12:52:47 31° 97° (E) 12:56:44 145.980
BEESAT 3 21 Nov 13:02:09 13:05:04 20° 248° (WSW) 13:07:56 437.485
QB50P2 21 Nov 13:02:12 13:04:04 13° 269° (W) 13:05:56 145.880/145.840
BUGSAT 1 21 Nov 13:05:01 13:09:11 63° 258° (WSW) 13:13:20 437.445
Oscar 19 21 Nov 13:07:23 13:12:28 69° 74° (ENE) 13:17:34 437.125/150
AO-7 21 Nov 13:16:51 13:22:36 21° 51° (NE) 13:28:21 .
Gurwin Techsat 1B 21 Nov 13:34:03 13:39:22 86° 77° (ENE) 13:44:43 435.225
DX 1 21 Nov 13:34:06 13:37:28 21° 94° (E) 13:40:48 434.975-435.025
AO-85 21 Nov 13:35:56 13:40:40 86° 237° (WSW) 13:45:44 145.980
SPROUT 21 Nov 13:44:39 13:48:35 37° 289° (WNW) 13:52:29 437.525
BEESAT 2 21 Nov 14:15:08 14:16:53 13° 251° (WSW) 14:18:37 435.950
UKube-1 21 Nov 14:15:11 14:19:12 36° 98° (E) 14:23:11 .
M-CUBED/EXP-1 PRIME 21 Nov 14:16:21 14:19:53 90° 92° (E) 14:23:44 437.505
50 SAT 21 Nov 14:18:00 14:21:14 87° 101° (ESE) 14:24:26 437.505
O/OREOS (USA 219) 21 Nov 14:19:22 14:23:52 55° 295° (WNW) 14:28:25 437.305
FALCONSAT 3 21 Nov 14:25:21 14:27:52 17° 200° (SSW) 14:30:23 435.103
VELOX 1 21 Nov 14:25:27 14:29:05 25° 293° (WNW) 14:32:41 145.980
Oscar 19 21 Nov 14:49:41 14:52:16 14° 270° (W) 14:54:51 437.125/150
ITAMSAT 1 21 Nov 15:00:27 15:05:26 48° 70° (ENE) 15:10:29 435.822/435.867
AO-7 21 Nov 15:05:58 15:14:15 87° 69° (ENE) 15:22:36 .
DX 1 21 Nov 15:09:43 15:13:42 34° 290° (WNW) 15:17:39 434.975-435.025
NO-84 21 Nov 15:12:10 15:15:38 46° 132° (SE) 15:19:24 435.350 FM
BEESAT 21 Nov 15:16:24 15:20:13 24° 95° (E) 15:24:01 436.000
Gurwin Techsat 1B 21 Nov 15:18:22 15:19:58 11° 272° (W) 15:21:35 435.225
AO-85 21 Nov 15:19:36 15:20:29 10° 253° (WSW) 15:21:23 145.980
ITUPSAT 1 21 Nov 15:26:03 15:30:12 29° 96° (E) 15:34:19 437.325
DOVE 4 21 Nov 15:32:58 15:36:13 17° 62° (ENE) 15:39:33 437.250
MOZHAYETS 4 21 Nov 15:35:26 15:39:53 50° 100° (E) 15:44:20
CUBESAT XI-V 21 Nov 15:48:50 15:51:50 17° 92° (E) 15:54:49 437.345
UKube-1 21 Nov 15:51:45 15:54:58 20° 294° (WNW) 15:58:09 .
YUBILEINY 21 Nov 16:31:29 16:39:58 47° 75° (ENE) 16:48:22 435.215
CUTE-I 21 Nov 16:37:19 16:40:18 15° 59° (ENE) 16:43:17 437.470
ITAMSAT 1 21 Nov 16:41:15 16:45:08 21° 267° (W) 16:49:03 435.822/435.867
HO-68 21 Nov 16:47:04 16:50:23 14° 51° (NE) 16:53:43 435.675
NO-84 21 Nov 16:49:49 16:53:08 28° 332° (NNW) 16:56:40 435.350 FM
XW-2D 21 Nov 16:50:51 16:53:00 15° 66° (ENE) 16:55:09 145.860 - 145.880
BEESAT 21 Nov 16:53:43 16:58:03 36° 291° (WNW) 17:02:21 436.000
AO-7 21 Nov 17:02:31 17:07:58 19° 269° (W) 17:13:27 .
ITUPSAT 1 21 Nov 17:03:50 17:07:57 30° 292° (WNW) 17:12:03 437.325
XW-2B 21 Nov 17:04:56 17:07:44 20° 68° (ENE) 17:10:34 145.730 - 145.750
DOVE 4 21 Nov 17:08:19 17:13:16 64° 259° (W) 17:18:30 437.250
MOZHAYETS 4 21 Nov 17:13:43 17:16:38 17° 296° (WNW) 17:19:32
NUDT-PHONESAT 21 Nov 17:18:15 17:20:58 20° 68° (ENE) 17:23:41 437.300
KKS-1 21 Nov 17:24:52 17:28:59 35° 98° (E) 17:33:04 437.445
CUBESAT XI-V 21 Nov 17:24:56 17:29:28 50° 287° (WNW) 17:34:00 437.345
XW-2C 21 Nov 17:29:44 17:33:14 41° 73° (ENE) 17:36:47 145.795 - 145.815
LilacSat-2 21 Nov 17:32:06 17:35:43 48° 74° (ENE) 17:39:22 437.200
XW-2F 21 Nov 17:39:56 17:43:32 51° 74° (ENE) 17:47:10 145.980 - 146.000
CUTE 1.7 + AOD 2 21 Nov 17:43:58 17:46:28 16° 65° (ENE) 17:49:00 437.475
STARS 21 Nov 17:48:14 17:51:54 25° 96° (E) 17:55:29 437.465
RS-15 21 Nov 17:57:51 18:08:34 37° 106° (ESE) 18:19:15 29.354- 29.394
KAITUO 1B 21 Nov 18:06:59 18:10:40 90° 73° (ENE) 18:14:23 145.475/437.950
SEEDS 21 Nov 18:13:01 18:16:01 20° 67° (ENE) 18:19:02 437.485
CUTE-I 21 Nov 18:14:18 18:19:40 78° 257° (WSW) 18:25:04 437.470
AAUSAT CUBESAT 2 21 Nov 18:21:15 18:21:41 10° 62° (ENE) 18:22:08 437.432
XW-2D 21 Nov 18:23:22 18:26:50 37° 262° (W) 18:30:21 145.860 - 145.880
YUBILEINY 21 Nov 18:28:38 18:36:33 39° 274° (W) 18:44:27 435.215
HO-68 21 Nov 18:29:42 18:36:48 68° 70° (ENE) 18:43:57 435.675
NO-84 21 Nov 18:29:42 18:31:38 13° 353° (N) 18:33:36 435.350 FM
XW-2A 21 Nov 18:34:42 18:36:12 13° 66° (ENE) 18:37:43 145.665 - 145.685
XW-2B 21 Nov 18:38:36 18:41:46 26° 265° (W) 18:44:56 145.730 - 145.750
CUBEBUG 2 21 Nov 18:42:42 18:47:00 41° 72° (ENE) 18:51:12 437.445
AO-73 21 Nov 18:45:35 18:46:59 11° 63° (ENE) 18:48:22 145.935
NUDT-PHONESAT 21 Nov 18:51:37 18:54:39 25° 264° (W) 18:57:43 437.300
Oscar 11 21 Nov 19:01:21 19:02:52 12° 62° (ENE) 19:04:22 .
KKS-1 21 Nov 19:01:52 19:05:18 22° 294° (WNW) 19:08:43 437.445
XW-2C 21 Nov 19:05:55 19:07:37 13° 269° (W) 19:09:19 145.795 - 145.815
LilacSat-2 21 Nov 19:09:11 19:10:16 11° 270° (W) 19:11:21 437.200
XW-2F 21 Nov 19:17:48 19:17:56 10° 270° (W) 19:18:05 145.980 - 146.000
CUTE 1.7 + AOD 2 21 Nov 19:17:53 19:21:54 46° 261° (W) 19:25:59 437.475
STARS 21 Nov 19:24:23 19:28:11 29° 292° (WNW) 19:31:59 437.465
ZACube-1 21 Nov 19:28:02 19:32:01 37° 72° (ENE) 19:35:56 437.345
UWE-3 21 Nov 19:38:20 19:42:49 87° 258° (WSW) 19:47:10 435.000/436.395/437.385
SEEDS 21 Nov 19:47:38 19:51:27 35° 263° (W) 19:55:18 437.485
AAUSAT CUBESAT 2 21 Nov 19:52:24 19:56:30 74° 258° (WSW) 20:00:40 437.432
XW-2A 21 Nov 20:05:33 20:08:35 33° 262° (W) 20:11:38 145.665 - 145.685
NO-84 21 Nov 20:07:59 20:10:27 15° 14° (NNE) 20:12:57 435.350 FM
RS-15 21 Nov 20:08:00 20:20:18 69° 307° (NW) 20:32:32 29.354- 29.394
STRAND 1 21 Nov 20:08:23 20:13:31 77° 103° (ESE) 20:18:37 437.568
AO-73 21 Nov 20:18:23 20:22:40 68° 259° (W) 20:26:53 145.935
HO-68 21 Nov 20:19:39 20:25:04 23° 268° (W) 20:30:31 435.675
DELFI C3 21 Nov 20:19:50 20:22:17 16° 66° (ENE) 20:24:44 145.870
CUBEBUG 2 21 Nov 20:20:31 20:23:45 19° 267° (W) 20:26:56 437.445
FO-29 21 Nov 20:27:18 20:34:29 38° 94° (E) 20:41:12 435.910
nSIGHT-1 21 Nov 20:31:57 20:34:49 30° 136° (SE) 20:37:41 .
Oscar 11 21 Nov 20:34:09 20:38:25 68° 259° (W) 20:42:43 .
SO-50 21 Nov 20:56:03 20:58:22 14° 109° (ESE) 21:00:40 436.795
ZACube-1 21 Nov 21:05:19 21:08:23 19° 267° (W) 21:11:26 437.345
EO-88 21 Nov 21:14:26 21:17:37 30° 71° (ENE) 21:20:49 145.990 - 145.960
UNISAT 6 21 Nov 21:15:46 21:17:17 12° 90° (E) 21:18:47 437.425
Max Valier Satellite 21 Nov 21:17:06 21:20:37 47° 74° (ENE) 21:24:08 145.860
ISS 21 Nov 21:17:21 21:20:37 71° 142° (SE) 21:23:53 437.550
TIGRISAT 21 Nov 21:19:55 21:21:28 12° 90° (E) 21:23:00 435.000
NO-84 21 Nov 21:44:43 21:48:45 40° 34° (NNE) 21:52:47 435.350 FM
STRAND 1 21 Nov 21:49:25 21:52:02 14° 300° (WNW) 21:54:39 437.568
DELFI C3 21 Nov 21:52:57 21:56:41 40° 262° (W) 22:00:27 145.870
ESTCUBE 1 21 Nov 21:54:28 21:56:13 12° 61° (ENE) 21:57:58 437.505/2401.250
PRISM 21 Nov 22:03:41 22:05:38 13° 91° (E) 22:07:34 437.425
nSIGHT-1 21 Nov 22:08:02 22:11:00 34° 333° (NNW) 22:13:59 .
FO-29 21 Nov 22:12:06 22:19:32 48° 293° (WNW) 22:26:35 435.910
RS-15 21 Nov 22:25:23 22:35:34 29° 336° (NNW) 22:45:36 29.354- 29.394
SO-50 21 Nov 22:33:50 22:38:15 63° 305° (NW) 22:42:45 436.795
EO-88 21 Nov 22:48:59 22:51:18 16° 267° (W) 22:53:39 145.990 - 145.960
UNISAT 6 21 Nov 22:50:10 22:54:23 58° 286° (WNW) 22:58:33 437.425
O/OREOS (USA 219) 21 Nov 22:50:24 22:54:23 29° 59° (ENE) 22:58:19 437.305
Max Valier Satellite 21 Nov 22:53:58 22:54:41 10° 269° (W) 22:55:25 145.860
TIGRISAT 21 Nov 22:54:21 22:58:32 58° 286° (WNW) 23:02:41 435.000
ISS 21 Nov 22:54:43 22:57:22 22° 340° (NNW) 23:00:00 437.550
SPROUT 21 Nov 23:03:28 23:05:56 15° 64° (ENE) 23:08:24 437.525
LO-87 21 Nov 23:09:36 23:13:12 75° 258° (WSW) 23:16:49 145.935 - 145.965
NO-84 21 Nov 23:22:13 23:26:04 33° 231° (SW) 23:29:52 435.350 FM
ESTCUBE 1 21 Nov 23:27:56 23:32:24 72° 259° (WSW) 23:36:53 437.505/2401.250
PRISM 21 Nov 23:37:08 23:41:12 51° 287° (WNW) 23:45:12 437.425
AIST 2D 21 Nov 23:39:24 23:42:51 53° 99° (E) 23:46:19 435.315
PCSat 21 Nov 23:43:16 23:47:42 26° 108° (ESE) 23:52:09 145.827
VELOX 1 21 Nov 23:45:58 23:49:45 28° 68° (ENE) 23:53:34 145.980
nSIGHT-1 21 Nov 23:46:07 23:47:57 14° 353° (N) 23:49:47 .
DUCHIFAT 1 21 Nov 23:57:35 00:00:43 20° 94° (E) 00:03:50 145.980
FO-29 22 Nov 00:01:46 00:02:37 10° 313° (NW) 00:03:28 435.910
EO-79 22 Nov 00:05:19 00:09:07 33° 97° (E) 00:12:53 145.935-145.965
NANOSAT C BR1 22 Nov 00:08:07 00:11:51 31° 97° (E) 00:15:33 145.865
SO-50 22 Nov 00:18:19 00:19:38 11° 326° (NW) 00:20:58 436.795
POLYITAN 1 22 Nov 00:20:38 00:24:43 49° 100° (E) 00:28:46 437.675
DX 1 22 Nov 00:29:50 00:32:59 20° 65° (ENE) 00:36:10 434.975-435.025
O/OREOS (USA 219) 22 Nov 00:29:51 00:33:42 28° 257° (WSW) 00:37:31 437.305
ISS 22 Nov 00:32:58 00:34:44 14° 0° (N) 00:36:30 437.550
SPROUT 22 Nov 00:37:13 00:41:23 50° 260° (W) 00:45:34 437.525
QB50P2 22 Nov 00:43:57 00:48:09 78° 285° (WNW) 00:52:20 145.880/145.840
RS-15 22 Nov 00:44:21 00:53:38 24° 12° (NNE) 01:02:36 29.354- 29.394
50 SAT 22 Nov 00:45:13 00:47:51 23° 70° (ENE) 00:50:30 437.505
BUGSAT 1 22 Nov 00:47:33 00:50:14 17° 93° (E) 00:52:54 437.445
UKube-1 22 Nov 01:09:30 01:13:19 31° 69° (ENE) 01:17:09 .
Oscar 19 22 Nov 01:19:24 01:23:32 24° 94° (E) 01:27:39 437.125/150
VELOX 1 22 Nov 01:22:22 01:26:07 27° 264° (W) 01:29:55 145.980
nSIGHT-1 22 Nov 01:23:01 01:25:09 16° 13° (NNE) 01:27:17 .
PCSat 22 Nov 01:25:40 01:30:50 45° 306° (NW) 01:36:02 145.827
DUCHIFAT 1 22 Nov 01:32:42 01:36:25 32° 290° (WNW) 01:40:07 145.980
EO-79 22 Nov 01:41:30 01:44:39 21° 293° (WNW) 01:47:48 145.935-145.965
NANOSAT C BR1 22 Nov 01:44:09 01:47:22 22° 293° (WNW) 01:50:34 145.865
Gurwin Techsat 1B 22 Nov 01:50:30 01:55:18 33° 97° (E) 02:00:04 435.225
POLYITAN 1 22 Nov 01:57:43 02:00:04 15° 296° (WNW) 02:02:25 437.675
DX 1 22 Nov 02:04:48 02:08:53 39° 261° (W) 02:13:01 434.975-435.025
ISS 22 Nov 02:09:25 02:12:06 23° 21° (NNE) 02:14:47 437.550
